When you browse on this site, cookies collect data to enhance your experience and personalize the content and advertising you see.
Visit our Privacy Policy to learn more. By continuing to use the site, you agree to this use of cookies and data.
  • In Spain
  • List of Countries
  • For 7 days
  • Water Temperature
  • Weather Map
  • Weather Widgets
  • user-avatar
    Login

    Hourly Weather Grechishino

    Today, 22 August, Thursday

    Time Temperature Precipitation Wind Pressure Humidity
    00:00 +20°C° 0.1 mm 3 mps 746 mmHg 90%
    01:00 +19°C° 0.1 mm 3 mps 746 mmHg 93%
    02:00 +18°C° 0.1 mm 3 mps 747 mmHg 96%
    03:00 +18°C° 0 mm 3 mps 747 mmHg 96%
    04:00 +17°C° 0 mm 4 mps 747 mmHg 95%
    05:00 +17°C° 0 mm 4 mps 747 mmHg 94%
    06:00 +16°C° 0 mm 5 mps 748 mmHg 92%
    07:00 +15°C° 0 mm 5 mps 749 mmHg 90%
    08:00 +15°C° 0 mm 5 mps 749 mmHg 88%
    09:00 +16°C° 0 mm 5 mps 750 mmHg 83%
    10:00 +18°C° 0 mm 4 mps 750 mmHg 78%
    11:00 +19°C° 0 mm 4 mps 750 mmHg 73%
    12:00 +20°C° 0 mm 4 mps 750 mmHg 70%
    13:00 +21°C° 0 mm 4 mps 751 mmHg 67%
    14:00 +22°C° 0 mm 4 mps 751 mmHg 64%
    15:00 +21°C° 0 mm 3 mps 751 mmHg 66%
    16:00 +21°C° 0 mm 3 mps 751 mmHg 68%
    17:00 +21°C° 0 mm 2 mps 751 mmHg 71%
    18:00 +19°C° 0 mm 2 mps 751 mmHg 74%
    19:00 +17°C° 0 mm 2 mps 751 mmHg 78%
    20:00 +15°C° 0 mm 2 mps 751 mmHg 82%
    21:00 +15°C° 0 mm 2 mps 752 mmHg 83%
    22:00 +14°C° 0 mm 2 mps 752 mmHg 84%
    23:00 +13°C° 0 mm 2 mps 752 mmHg 84%

    Tomorrow, 23 August, Friday

    Time Temperature Precipitation Wind Pressure Humidity
    00:00 +13°C° 0 mm 1 mps 752 mmHg 86%
    01:00 +13°C° 0 mm 1 mps 753 mmHg 87%
    02:00 +12°C° 0 mm 1 mps 753 mmHg 89%
    03:00 +12°C° 0 mm 1 mps 753 mmHg 89%
    04:00 +12°C° 0 mm 1 mps 753 mmHg 90%
    05:00 +11°C° 0 mm 0 mps 753 mmHg 91%
    06:00 +12°C° 0 mm 0 mps 753 mmHg 85%
    07:00 +15°C° 0 mm 1 mps 753 mmHg 80%
    08:00 +18°C° 0 mm 1 mps 753 mmHg 74%
    09:00 +20°C° 0 mm 1 mps 753 mmHg 69%
    10:00 +21°C° 0 mm 1 mps 753 mmHg 64%
    11:00 +22°C° 0 mm 1 mps 754 mmHg 59%
    12:00 +23°C° 0 mm 1 mps 753 mmHg 57%
    13:00 +23°C° 0 mm 1 mps 753 mmHg 55%
    14:00 +23°C° 0 mm 1 mps 753 mmHg 54%
    15:00 +23°C° 0 mm 1 mps 753 mmHg 59%
    16:00 +23°C° 0 mm 1 mps 753 mmHg 63%
    17:00 +22°C° 0 mm 1 mps 752 mmHg 68%
    18:00 +20°C° 0 mm 1 mps 752 mmHg 73%
    19:00 +18°C° 0 mm 1 mps 752 mmHg 78%
    20:00 +15°C° 0 mm 1 mps 752 mmHg 83%
    21:00 +15°C° 0 mm 1 mps 752 mmHg 84%
    22:00 +14°C° 0 mm 1 mps 752 mmHg 85%
    23:00 +13°C° 0 mm 1 mps 752 mmHg 87%

    Day after tomorrow, 24 August, Saturday

    Time Temperature Precipitation Wind Pressure Humidity
    00:00 +13°C° 0 mm 1 mps 752 mmHg 87%
    01:00 +12°C° 0 mm 0 mps 752 mmHg 87%
    02:00 +11°C° 0 mm 0 mps 752 mmHg 88%
    03:00 +11°C° 0 mm 0 mps 752 mmHg 88%
    04:00 +11°C° 0 mm 0 mps 752 mmHg 88%
    05:00 +11°C° 0 mm 0 mps 752 mmHg 89%
    06:00 +14°C° 0 mm 1 mps 752 mmHg 83%
    07:00 +16°C° 0 mm 1 mps 752 mmHg 78%
    08:00 +19°C° 0 mm 1 mps 752 mmHg 73%
    09:00 +20°C° 0 mm 1 mps 752 mmHg 69%
    10:00 +21°C° 0 mm 1 mps 752 mmHg 65%
    11:00 +22°C° 0 mm 1 mps 752 mmHg 61%
    12:00 +23°C° 0 mm 2 mps 752 mmHg 60%
    13:00 +23°C° 0 mm 2 mps 752 mmHg 59%
    14:00 +23°C° 0 mm 2 mps 752 mmHg 58%
    15:00 +23°C° 0 mm 2 mps 751 mmHg 62%
    16:00 +23°C° 0 mm 2 mps 751 mmHg 67%
    17:00 +23°C° 0 mm 1 mps 751 mmHg 72%
    18:00 +21°C° 0 mm 1 mps 750 mmHg 77%
    19:00 +19°C° 0 mm 1 mps 750 mmHg 82%
    20:00 +16°C° 0 mm 1 mps 750 mmHg 87%
    21:00 +16°C° 0 mm 1 mps 750 mmHg 88%
    22:00 +15°C° 0 mm 1 mps 750 mmHg 90%
    23:00 +15°C° 0 mm 1 mps 750 mmHg 91%

    25 August, Sunday

    Time Temperature Precipitation Wind Pressure Humidity
    00:00 +14°C° 0 mm 1 mps 750 mmHg 91%
    01:00 +14°C° 0 mm 1 mps 750 mmHg 92%
    02:00 +14°C° 0 mm 1 mps 750 mmHg 92%
    03:00 +13°C° 0 mm 1 mps 750 mmHg 93%
    04:00 +13°C° 0 mm 1 mps 750 mmHg 93%
    05:00 +13°C° 0 mm 1 mps 750 mmHg 94%
    06:00 +15°C° 0 mm 1 mps 750 mmHg 89%
    07:00 +16°C° 0 mm 2 mps 750 mmHg 83%
    08:00 +18°C° 0 mm 2 mps 750 mmHg 78%
    09:00 +19°C° 0 mm 2 mps 750 mmHg 74%
    10:00 +21°C° 0 mm 2 mps 750 mmHg 70%
    11:00 +23°C° 0 mm 2 mps 750 mmHg 67%
    12:00 +22°C° 0.3 mm 3 mps 750 mmHg 69%
    13:00 +22°C° 0.3 mm 3 mps 750 mmHg 72%
    14:00 +22°C° 0.3 mm 3 mps 750 mmHg 75%
    15:00 +22°C° 0.2 mm 3 mps 750 mmHg 76%
    16:00 +23°C° 0.2 mm 2 mps 750 mmHg 77%
    17:00 +21°C° 0.2 mm 2 mps 750 mmHg 77%
    18:00 +20°C° 0 mm 2 mps 750 mmHg 81%
    19:00 +18°C° 0 mm 2 mps 750 mmHg 84%
    20:00 +16°C° 0 mm 2 mps 751 mmHg 87%
    21:00 +15°C° 0 mm 2 mps 751 mmHg 89%
    22:00 +14°C° 0 mm 2 mps 751 mmHg 90%
    23:00 +13°C° 0 mm 2 mps 752 mmHg 91%

    26 August, Monday

    Time Temperature Precipitation Wind Pressure Humidity
    00:00 +13°C° 0 mm 2 mps 752 mmHg 92%
    01:00 +12°C° 0 mm 2 mps 752 mmHg 93%
    02:00 +12°C° 0 mm 2 mps 752 mmHg 94%
    03:00 +10°C° 0 mm 2 mps 752 mmHg 95%
    04:00 +10°C° 0 mm 2 mps 753 mmHg 95%
    05:00 +10°C° 0 mm 2 mps 753 mmHg 96%
    06:00 +12°C° 0 mm 2 mps 753 mmHg 92%
    07:00 +14°C° 0 mm 2 mps 753 mmHg 88%
    08:00 +16°C° 0 mm 2 mps 754 mmHg 84%
    09:00 +17°C° 0 mm 2 mps 754 mmHg 77%
    10:00 +19°C° 0 mm 2 mps 754 mmHg 70%
    11:00 +20°C° 0 mm 2 mps 754 mmHg 63%
    12:00 +21°C° 0 mm 2 mps 754 mmHg 60%
    13:00 +21°C° 0 mm 2 mps 754 mmHg 58%
    14:00 +23°C° 0 mm 2 mps 753 mmHg 55%
    15:00 +22°C° 0 mm 1 mps 753 mmHg 59%
    16:00 +22°C° 0 mm 1 mps 753 mmHg 64%
    17:00 +22°C° 0 mm 1 mps 753 mmHg 68%
    18:00 +20°C° 0 mm 1 mps 752 mmHg 73%
    19:00 +18°C° 0 mm 1 mps 752 mmHg 79%
    20:00 +15°C° 0 mm 1 mps 752 mmHg 84%
    21:00 +14°C° 0 mm 1 mps 752 mmHg 86%
    22:00 +14°C° 0 mm 1 mps 752 mmHg 88%
    23:00 +13°C° 0 mm 1 mps 753 mmHg 90%

    27 August, Tuesday

    Time Temperature Precipitation Wind Pressure Humidity
    00:00 +13°C° 0 mm 2 mps 752 mmHg 91%
    01:00 +13°C° 0 mm 2 mps 752 mmHg 92%
    02:00 +12°C° 0 mm 2 mps 752 mmHg 93%
    03:00 +12°C° 0 mm 2 mps 752 mmHg 94%
    04:00 +12°C° 0 mm 1 mps 752 mmHg 94%
    05:00 +12°C° 0 mm 1 mps 752 mmHg 94%
    06:00 +14°C° 0 mm 1 mps 752 mmHg 88%
    07:00 +15°C° 0 mm 1 mps 752 mmHg 83%
    08:00 +18°C° 0 mm 1 mps 752 mmHg 77%
    09:00 +20°C° 0 mm 1 mps 752 mmHg 73%
    10:00 +20°C° 0 mm 2 mps 752 mmHg 69%
    11:00 +23°C° 0 mm 2 mps 752 mmHg 64%
    12:00 +23°C° 0 mm 2 mps 751 mmHg 63%
    13:00 +24°C° 0 mm 2 mps 751 mmHg 63%
    14:00 +24°C° 0 mm 2 mps 751 mmHg 62%
    15:00 +24°C° 0 mm 2 mps 750 mmHg 66%
    16:00 +24°C° 0 mm 2 mps 750 mmHg 70%
    17:00 +24°C° 0 mm 1 mps 750 mmHg 74%
    18:00 +22°C° 0 mm 1 mps 750 mmHg 79%
    19:00 +20°C° 0 mm 1 mps 750 mmHg 84%
    20:00 +18°C° 0 mm 1 mps 750 mmHg 89%
    21:00 +18°C° 0 mm 1 mps 750 mmHg 90%
    22:00 +16°C° 0 mm 1 mps 750 mmHg 91%
    23:00 +16°C° 0 mm 1 mps 750 mmHg 92%
    Show more